Everett, WA

3:59 AM PST on November 20, 2019 (GMT -0800)
Snohomish County

Weather History for KPAE - August, 2019

Change the Weather History Date:

Tuesday, August 13, 2019

  Actual Average Record
Temperature  
Mean Temperature 69 °F -  
Max Temperature 78 °F 74 °F 91 °F (1977)
Min Temperature 60 °F 55 °F 42 °F (1955)
Cooling Degree Days 4    
Growing Degree Days 19 (Base 50)    
Moisture  
Dew Point 55 °F    
Average Humidity 63    
Maximum Humidity 81    
Minimum Humidity 42    
Precipitation  
Precipitation 0.00 in - - ()
Sea Level Pressure  
Sea Level Pressure 30.11 in    
Wind  
Wind Speed 4 mph (North)    
Max Wind Speed 9 mph    
Max Gust Speed -    
Visibility 10 miles    
Events      
Averages and records for this station are not official NWS values.
T = Trace of Precipitation, MM = Missing Value Source: NWS Daily Summary

Daily Weather History Graph

Daily Weather History Graph

Search for Another Location

Airport or City:

Astronomy

Aug. 13, 2019 Rise Set
Actual Time 6:01 AM PDT 8:25 PM PDT
Civil Twilight 5:26 AM PDT 9:00 PM PDT
Nautical Twilight 4:43 AM PDT 9:43 PM PDT
Astronomical Twilight 3:53 AM PDT 10:32 PM PDT
Moon 7:52 PM PDT (8/13) 3:58 AM PDT (8/13)
Length of Visible Light 15h 33m
Length of Day
14h 24m
Waxing Gibbous, 97% of the Moon is Illuminated
Aug 13
Waxing Gibbous
Aug 15
Full
Aug 23
Last Quarter
Aug 30
New
Sep 5
First Quarter

Hourly Weather History & Observations

Time (PDT) Temp. Dew Point Humidity Pressure Visibility Wind Dir Wind Speed Gust Speed Precip Events Conditions
12:53 AM 61.0 °F 55.0 °F 81% 30.11 in 10.0 mi North 4.6 mph - N/A   Clear
1:53 AM 62.1 °F 55.9 °F 80% 30.11 in 10.0 mi NNE 5.8 mph - N/A   Clear
2:53 AM 61.0 °F 55.0 °F 81% 30.11 in 10.0 mi North 3.5 mph - N/A   Clear
3:53 AM 60.1 °F 54.0 °F 80% 30.10 in 10.0 mi Variable 3.5 mph - N/A   Mostly Cloudy
4:53 AM 61.0 °F 55.0 °F 81% 30.10 in 10.0 mi North 3.5 mph - N/A   Scattered Clouds
5:53 AM 62.1 °F 55.0 °F 78% 30.10 in 10.0 mi ENE 3.5 mph - N/A   Partly Cloudy
6:53 AM 61.0 °F 55.0 °F 81% 30.11 in 10.0 mi ESE 3.5 mph - N/A   Clear
7:53 AM 63.0 °F 55.9 °F 78% 30.11 in 10.0 mi Calm Calm - N/A   Clear
8:53 AM 64.9 °F 55.9 °F 73% 30.12 in 10.0 mi Calm Calm - N/A   Clear
9:53 AM 69.1 °F 55.9 °F 63% 30.12 in 10.0 mi Calm Calm - N/A   Mostly Cloudy
10:53 AM 70.0 °F 57.0 °F 63% 30.13 in 10.0 mi WNW 4.6 mph - N/A   Scattered Clouds
11:53 AM 72.0 °F 57.0 °F 59% 30.13 in 10.0 mi NW 8.1 mph - N/A   Clear
12:53 PM 75.0 °F 55.9 °F 51% 30.13 in 10.0 mi WNW 8.1 mph - N/A   Clear
1:53 PM 75.9 °F 55.0 °F 48% 30.12 in 10.0 mi NW 5.8 mph - N/A   Clear
2:53 PM 77.0 °F 54.0 °F 45% 30.12 in 10.0 mi North 5.8 mph - N/A   Mostly Cloudy
3:53 PM 78.1 °F 53.1 °F 42% 30.12 in 10.0 mi North 8.1 mph - N/A   Mostly Cloudy
4:53 PM 77.0 °F 55.0 °F 47% 30.11 in 10.0 mi North 9.2 mph - N/A   Clear
5:53 PM 75.9 °F 53.1 °F 45% 30.10 in 10.0 mi North 5.8 mph - N/A   Clear
6:53 PM 73.9 °F 52.0 °F 46% 30.09 in 10.0 mi North 5.8 mph - N/A   Clear
7:53 PM 72.0 °F 52.0 °F 49% 30.09 in 10.0 mi North 4.6 mph - N/A   Clear
8:53 PM 70.0 °F 52.0 °F 53% 30.10 in 10.0 mi North 3.5 mph - N/A   Clear
9:53 PM 66.9 °F 53.1 °F 61% 30.11 in 10.0 mi NNW 4.6 mph - N/A   Clear
10:53 PM 66.0 °F 53.1 °F 63% 30.12 in 10.0 mi North 4.6 mph - N/A   Clear
11:53 PM 64.9 °F 53.1 °F 65% 30.13 in 10.0 mi North 3.5 mph - N/A   Clear